Location: Beneden-Haastrecht
(52.0012°N, 4.7557°E)
Time: 09:34:37
(UTC+00:00)

X-37B - Pass Details

Date: 24 January 2021
Orbit: 383 x 391 km, 45.0° (Epoch: 27 February)

Event Time Altitude Azimuth Distance (km) Brightness Sun altitude
Rises 16:48:54 0° 224° (SW) 2,266 6.0 -5.5°
Reaches altitude 10° 16:51:30 10° 201° (SSW) 1,415 4.1 -5.9°
Maximum altitude 16:53:32 16° 161° (SSE) 1,120 3.0 -6.2°
Drops below altitude 10° 16:55:34 10° 122° (ESE) 1,421 3.1 -6.4°
Enters shadow 16:57:11 - 105° (ESE) 1,919 3.6 -6.7°
